METAR AND TAF INFORMATION
METAR FOR LGSK
ADDS - METARS form results

(2322 UTC 23 August 2019)
Data provider http://aviationweather.gov/metar/data/
 
Forecast for: LGSK (SKIATHOS ISLAND , GR)
Text: TAF LGSK 232300Z 2400/2409 01015KT 9999 FEW020
Forecast period: 0000 to 0900 UTC 24 August 2019
Forecast type: FROM: standard forecast or significant change
Winds: from the N (10 degrees) at 17 MPH (15 knots; 7.7 m/s)
Visibility: 6 or more miles 10+ km)
Ceiling: at least 12,000 feet AGL
Clouds: few clouds at 2000 feet AGL
Weather: no significant weather forecast for this period

 AIRPORT MAP

 RUNWAY INFORMATION
Runway 02 Runway length 5341 ft Runway width 98 ft
Runway elevation 9 ft Runway displaced threshold 190 ft Runway heading 19
Runway 20 Runway length 5341 ft Runway width 98 ft
Runway elevation 54 ft Runway displaced threshold 0 ft Runway heading 199

 AIRPORT FREQUENCIES
Type A/G Name SKIATHOS R Frequency 563.7 MHZ
Type APP Name SKIATHOS A Frequency 126.05 MHZ
Type TWR Name SKIATHOS T Frequency 126.05 MHZ

 AIRPORT NEAR NAVIGATION AIDS
Type NDB Name Skiathos Frequency 326 KHZ



Datenschutz / Privacy Policy • Impressum / Imprint • Disclaimer

Powered by Virtual Airlines Manager [v2.6.2]